Humidity-temperature Sensor

Selected Measurement Type: Relative Humidity

 
Relative Humidity [%]     6 entries per hour
Showing data from 12/16/2016 (23:50:00 Z) to 12/13/2016 (00:01:00 Z)
Previous Next [ Day | 3-Days | 7-Days ]
First Last
Prev [ Day | 3-Days | 7-Days ] Next
First Last

Start Time:     :
End Time:     :     
Time (in GMT) :00 :50 :40 :30 :20 :10
Previous Next [ Day | 3-Days | 7-Days ]
First Last
Prev [ Day | 3-Days | 7-Days ] Next
First Last


123 => good data
MM => data is determined as missing
-- => data not received/configured
Back to Top Back to Top
12/17/2016 00:00 to 23:10 -- 84.43 84.24 83.63 83.35 82.76
12/16/2016 23:00 to 22:10 83.20 83.12 83.73 84.72 84.28 84.55
12/16/2016 22:00 to 21:10 84.89 85.35 85.48 84.99 84.51 85.18
12/16/2016 21:00 to 20:10 86.28 87.16 87.18 87.01 87.26 88.12
12/16/2016 20:00 to 19:10 87.30 87.12 86.34 85.46 85.14 85.43
12/16/2016 19:00 to 18:10 85.27 84.76 84.64 84.11 83.46 84.00
12/16/2016 18:00 to 17:10 83.69 83.48 83.20 82.76 83.02 83.10
12/16/2016 17:00 to 16:10 82.32 84.43 84.24 83.98 83.37 83.16
12/16/2016 16:00 to 15:10 82.26 82.41 83.12 82.32 81.23 80.96
12/16/2016 15:00 to 14:10 81.48 82.22 82.28 83.23 82.43 83.48
12/16/2016 14:00 to 13:10 84.43 86.44 85.64 86.72 86.17 86.21
12/16/2016 13:00 to 12:10 86.42 86.34 86.78 86.51 86.91 86.63
12/16/2016 12:00 to 11:10 87.45 87.20 86.70 85.92 85.92 86.32
12/16/2016 11:00 to 10:10 85.96 85.54 85.79 85.75 84.72 84.17
12/16/2016 10:00 to 9:10 83.77 83.06 83.37 84.15 84.17 83.27
12/16/2016 09:00 to 8:10 84.17 84.42 84.30 84.61 84.55 84.45
12/16/2016 08:00 to 7:10 83.12 84.17 83.75 82.95 83.39 83.96
12/16/2016 07:00 to 6:10 83.90 83.48 83.84 84.74 84.00 85.35
12/16/2016 06:00 to 5:10 85.60 86.02 85.43 86.70 87.20 86.68
12/16/2016 05:00 to 4:10 87.50 86.97 86.72 86.67 86.51 85.75
12/16/2016 04:00 to 3:10 84.24 84.87 85.27 85.52 85.33 85.81
12/16/2016 03:00 to 2:10 85.88 85.54 85.06 86.23 85.10 84.51
12/16/2016 02:00 to 1:10 -- -- -- -- -- --
12/16/2016 01:00 to 0:10 83.29 83.10 83.08 82.99 83.12 81.67
12/16/2016 00:00 to 23:10 80.83 81.59 82.32 80.81 82.85 82.78
12/15/2016 23:00 to 22:10 83.42 82.81 84.11 84.43 83.94 82.58
12/15/2016 22:00 to 21:10 82.62 81.59 81.75 81.36 81.21 80.85
12/15/2016 21:00 to 20:10 81.17 81.38 81.67 83.04 83.48 83.90
12/15/2016 20:00 to 19:10 84.05 84.03 84.00 83.60 84.03 83.71
12/15/2016 19:00 to 18:10 83.10 83.90 83.77 83.86 84.49 84.91
12/15/2016 18:00 to 17:10 84.80 85.98 86.82 86.04 86.61 87.01
12/15/2016 17:00 to 16:10 87.03 86.40 85.64 86.32 85.64 86.21
12/15/2016 16:00 to 15:10 85.62 86.42 86.89 88.48 87.81 86.27
12/15/2016 15:00 to 14:10 86.93 87.07 86.61 87.07 86.57 86.82
12/15/2016 14:00 to 13:10 87.30 87.79 86.97 86.72 87.62 87.39
12/15/2016 13:00 to 12:10 88.88 88.90 90.02 91.72 92.90 91.01
12/15/2016 12:00 to 11:10 90.40 91.05 89.62 88.19 87.45 88.12
12/15/2016 11:00 to 10:10 -- -- -- -- -- --
12/15/2016 10:00 to 9:10 88.86 84.97 84.76 86.04 87.22 91.93
12/15/2016 09:00 to 8:10 90.58 91.66 90.94 89.30 86.30 86.46
12/15/2016 08:00 to 7:10 87.18 86.65 86.72 87.07 86.74 86.84
12/15/2016 07:00 to 6:10 87.09 87.03 88.53 90.61 93.53 95.04
12/15/2016 06:00 to 5:10 -- -- -- -- -- --
12/15/2016 05:00 to 4:10 88.00 87.43 88.23 87.68 87.45 87.28
12/15/2016 04:00 to 3:10 87.79 88.00 90.44 92.69 90.71 91.60
12/15/2016 03:00 to 2:10 91.85 91.40 88.74 87.49 88.06 89.76
12/15/2016 02:00 to 1:10 93.76 94.60 94.50 93.66 92.92 93.47
12/15/2016 01:00 to 0:10 94.88 94.73 95.17 94.27 93.53 93.76
12/15/2016 00:00 to 23:10 94.79 96.03 93.84 92.86 92.44 92.62
12/14/2016 23:00 to 22:10 93.05 93.21 92.44 91.97 92.33 91.40
12/14/2016 22:00 to 21:10 91.43 91.20 92.20 92.77 93.26 93.17
12/14/2016 21:00 to 20:10 93.97 93.32 92.12 89.68 88.04 88.40
12/14/2016 20:00 to 19:10 88.32 88.90 89.35 88.95 87.39 87.70
12/14/2016 19:00 to 18:10 86.70 86.48 87.12 86.27 85.94 86.36
12/14/2016 18:00 to 17:10 87.54 87.24 85.98 85.60 85.69 85.41
12/14/2016 17:00 to 16:10 85.08 85.35 84.93 86.19 86.55 86.28
12/14/2016 16:00 to 15:10 85.45 86.27 87.37 87.54 84.63 84.97
12/14/2016 15:00 to 14:10 83.79 85.22 88.17 87.52 86.88 84.93
12/14/2016 14:00 to 13:10 86.65 85.06 85.31 84.05 84.63 84.85
12/14/2016 13:00 to 12:10 84.80 84.34 83.60 83.90 82.95 82.32
12/14/2016 12:00 to 11:10 82.85 82.78 84.00 84.74 84.17 84.15
12/14/2016 11:00 to 10:10 84.07 83.96 83.77 82.99 82.60 82.79
12/14/2016 10:00 to 9:10 84.19 83.20 83.81 84.45 84.11 84.53
12/14/2016 09:00 to 8:10 85.22 84.82 85.50 85.33 85.45 85.01
12/14/2016 08:00 to 7:10 84.78 85.60 85.41 85.71 86.19 85.54
12/14/2016 07:00 to 6:10 86.07 87.35 88.27 88.29 86.72 85.83
12/14/2016 06:00 to 5:10 85.88 84.00 83.20 82.85 82.81 82.26
12/14/2016 05:00 to 4:10 83.18 82.55 83.00 82.09 82.39 81.04
12/14/2016 04:00 to 3:10 81.67 80.96 82.05 81.21 80.07 81.54
12/14/2016 03:00 to 2:10 81.54 80.66 79.93 80.81 80.30 80.18
12/14/2016 02:00 to 1:10 79.82 80.39 80.43 80.70 81.63 81.15
12/14/2016 01:00 to 0:10 81.86 80.37 78.87 80.14 80.77 79.46
12/14/2016 00:00 to 23:10 80.12 79.78 80.12 79.51 79.76 80.01
12/13/2016 23:00 to 22:10 80.12 79.99 79.67 79.78 80.07 80.62
12/13/2016 22:00 to 21:10 81.19 80.83 82.41 82.87 81.00 81.21
12/13/2016 21:00 to 20:10 81.55 81.75 81.42 80.14 80.66 81.88
12/13/2016 20:00 to 19:10 83.48 85.04 83.39 83.35 81.33 81.88
12/13/2016 19:00 to 18:10 81.73 81.90 83.39 83.21 82.97 82.64
12/13/2016 18:00 to 17:10 82.18 82.01 83.37 83.52 83.92 83.63
12/13/2016 17:00 to 16:10 83.81 84.00 85.69 84.07 81.59 82.62
12/13/2016 16:00 to 15:10 81.21 82.58 82.36 80.79 82.32 82.78
12/13/2016 15:00 to 14:10 83.81 82.95 82.70 82.55 80.91 80.22
12/13/2016 14:00 to 13:10 79.99 79.93 79.76 80.94 80.83 80.09
12/13/2016 13:00 to 12:10 80.14 79.93 80.39 80.72 80.45 80.30
12/13/2016 12:00 to 11:10 81.48 78.52 81.02 82.99 82.18 81.82
12/13/2016 11:00 to 10:10 82.05 82.26 81.88 82.28 82.26 81.78
12/13/2016 10:00 to 9:10 81.50 81.69 81.88 81.17 81.57 82.09
12/13/2016 09:00 to 8:10 81.21 79.27 79.53 80.83 79.61 82.05
12/13/2016 08:00 to 7:10 79.67 80.35 82.41 83.16 82.89 84.11
12/13/2016 07:00 to 6:10 83.42 83.37 84.15 85.77 84.72 84.97
12/13/2016 06:00 to 5:10 85.27 83.92 83.48 83.67 84.82 86.55
12/13/2016 05:00 to 4:10 84.80 84.80 83.29 81.96 81.17 80.51
12/13/2016 04:00 to 3:10 81.59 81.86 82.58 81.67 81.96 80.79
12/13/2016 03:00 to 2:10 80.77 80.75 81.46 80.53 81.06 80.64
12/13/2016 02:00 to 1:10 -- -- -- -- -- --
12/13/2016 01:00 to 0:10 79.34 79.19 78.50 79.08 79.69 79.21